Flag for India Weather past 2 weeks in Virudhunagar, Tamil Nadu, India

Now
90 °F

Partly cloudy.


Feels Like: 96 °F
Forecast: 79 / 95 °F
Wind: 16 mph from West

Location: Tiruchchirapalli

Current Time: Aug 29, 2014 at 7:34:04 PM

Latest Report: Aug 29, 2014 at 7:10 PM


Visibility: 4 mi

Pressure: 29.65 "Hg

Humidity: 55%

Dew point: 72 °F

Location of VirudhunagarLocation

Historic Weather in Virudhunagar — Graph

°F

Virudhunagar temperature yesterday

Maximum temperature yesterday: 97 °F (at 2:10 PM)
Minimum temperature yesterday: 79 °F (at 6:40 AM)
Average temperature yesterday: 86 °F

Past Weeks' High & Low Weather Summary

 TemperatureHumidityPressure
High102 °F (Aug 16, 3:40 PM)100% (Aug 18, 8:40 PM)29.89 "Hg (Aug 18, 8:40 PM)
Low73 °F (Aug 18, 8:40 PM)35% (Aug 15, 3:40 PM)29.59 "Hg (Aug 21, 3:40 PM)
Average86 °F66%29.74 "Hg
* Reported Aug 14 5:40 PM — Aug 29 6:10 PM, Virudhunagar, Weather by CustomWeather, © 2014

Note: Actual official high and low records may vary slightly from our data, if they occured in-between our weather recording intervals... More about our weather records

Advertising

Virudhunagar weather history for previous 24 hours

 ConditionsComfort  
Time TempWeatherWind HumidityBarometerVisibility
6:10 PM
Aug 29
90 °FBroken clouds.13 mph55%29.62 "Hg4 mi
5:40 PM91 °FBroken clouds.8 mph52%29.62 "Hg4 mi
5:10 PM90 °FBroken clouds.6 mph52%29.62 "Hg4 mi
4:40 PM90 °FBroken clouds.10 mph52%29.62 "Hg4 mi
4:10 PM91 °FBroken clouds.6 mph49%29.62 "Hg5 mi
3:40 PM91 °FBroken clouds.5 mph49%29.62 "Hg5 mi
3:10 PM93 °FBroken clouds.6 mph47%29.62 "Hg5 mi
2:40 PM93 °FBroken clouds.9 mph44%29.62 "Hg5 mi
2:10 PM93 °FBroken clouds.9 mph44%29.62 "Hg5 mi
1:40 PM95 °FScattered clouds.10 mph41%29.62 "Hg5 mi
1:10 PM95 °FScattered clouds.14 mph41%29.65 "Hg5 mi
12:40 PM93 °FScattered clouds.7 mph44%29.68 "Hg5 mi
12:10 PM93 °FScattered clouds.10 mph47%29.68 "Hg5 mi
11:40 AM91 °FScattered clouds.16 mph49%29.71 "Hg5 mi
11:10 AM90 °FScattered clouds.20 mph52%29.71 "Hg5 mi
10:40 AM88 °FScattered clouds.18 mph59%29.74 "Hg4 mi
10:10 AM86 °FScattered clouds.14 mph62%29.74 "Hg4 mi
9:40 AM86 °FScattered clouds.13 mph62%29.74 "Hg4 mi
9:10 AM84 °FBroken clouds.12 mph66%29.74 "Hg4 mi
8:40 AM82 °FBroken clouds.5 mph70%29.74 "Hg4 mi
8:10 AM82 °FBroken clouds.7 mph62%29.74 "Hg4 mi
7:40 AM81 °FBroken clouds.6 mph66%29.74 "Hg3 mi
7:10 AM81 °FBroken clouds.No wind66%29.71 "Hg3 mi
6:40 AM81 °FBroken clouds.No wind66%29.71 "Hg3 mi
6:10 AM79 °FPartly cloudy.2 mph70%29.71 "Hg3 mi
5:40 AM79 °FPartly cloudy.5 mph70%29.71 "Hg3 mi
5:10 AM81 °FPassing clouds.7 mph70%29.68 "Hg3 mi
4:40 AM81 °FPassing clouds.3 mph74%29.68 "Hg3 mi
4:10 AM81 °FPassing clouds.7 mph74%29.68 "Hg3 mi
3:40 AM81 °FPassing clouds.7 mph84%29.68 "Hg3 mi
3:10 AM81 °FPassing clouds.7 mph74%29.68 "Hg4 mi
2:40 AM81 °FPassing clouds.9 mph74%29.68 "Hg4 mi
1:10 AM82 °FPassing clouds.12 mph62%29.71 "Hg4 mi
12:40 AM82 °FPassing clouds.13 mph62%29.71 "Hg4 mi
12:10 AM82 °FPassing clouds.12 mph62%29.74 "Hg4 mi
11:40 PM
Aug 28
82 °FPassing clouds.12 mph58%29.74 "Hg4 mi
11:10 PM84 °FPassing clouds.8 mph62%29.74 "Hg4 mi
10:40 PM84 °FPartly cloudy.9 mph58%29.74 "Hg4 mi
10:10 PM84 °FPartly cloudy.12 mph58%29.74 "Hg4 mi
9:40 PM84 °FPartly cloudy.12 mph58%29.74 "Hg4 mi
9:10 PM84 °FPartly cloudy.20 mph58%29.71 "Hg4 mi
8:40 PM86 °FPartly cloudy.16 mph59%29.71 "Hg4 mi
8:10 PM88 °FPartly cloudy.9 mph59%29.71 "Hg4 mi
7:40 PM88 °FPartly cloudy.9 mph59%29.68 "Hg4 mi
7:10 PM88 °FPartly cloudy.13 mph59%29.68 "Hg4 mi
Weather by CustomWeather, © 2014

See weather overviewHow to use our weather pages